TimeCST,TemperatureF,Dew PointF,Humidity,Sea Level PressureIn,VisibilityMPH,Wind Direction,Wind SpeedMPH,Gust SpeedMPH,PrecipitationIn,Events,Conditions,WindDirDegrees,DateUTC
12:53 AM,37.0,30.9,79,29.91,10.0,WNW,9.2,-,N/A,,Overcast,300,2012-12-10 06:53:00
1:29 AM,33.8,26.6,75,29.91,10.0,NW,10.4,-,N/A,,Scattered Clouds,320,2012-12-10 07:29:00
1:53 AM,32.0,25.0,75,29.92,10.0,NW,11.5,-,N/A,,Partly Cloudy,320,2012-12-10 07:53:00
2:53 AM,28.9,21.9,75,29.92,10.0,NW,12.7,-,N/A,,Clear,310,2012-12-10 08:53:00
3:53 AM,28.0,19.0,69,29.91,10.0,NW,11.5,-,N/A,,Clear,320,2012-12-10 09:53:00
4:53 AM,27.0,18.0,69,29.92,10.0,NW,11.5,-,N/A,,Clear,320,2012-12-10 10:53:00
5:53 AM,26.1,18.0,71,29.94,10.0,NW,8.1,-,N/A,,Mostly Cloudy,320,2012-12-10 11:53:00
6:53 AM,25.0,17.1,72,29.97,10.0,NW,12.7,-,N/A,,Overcast,320,2012-12-10 12:53:00
7:53 AM,25.0,16.0,69,30.01,10.0,NW,11.5,-,N/A,,Overcast,320,2012-12-10 13:53:00
8:09 AM,26.6,17.6,69,29.99,10.0,NW,9.2,-,N/A,,Overcast,310,2012-12-10 14:09:00
8:53 AM,25.0,17.1,72,30.01,10.0,NW,12.7,19.6,N/A,,Overcast,310,2012-12-10 14:53:00
9:53 AM,27.0,17.1,66,30.02,10.0,NW,10.4,-,N/A,,Overcast,320,2012-12-10 15:53:00
10:53 AM,27.0,17.1,66,30.02,10.0,WNW,11.5,-,N/A,,Overcast,300,2012-12-10 16:53:00
11:53 AM,28.0,19.0,69,29.99,10.0,NW,11.5,-,N/A,,Overcast,310,2012-12-10 17:53:00
12:53 PM,30.0,19.9,66,29.99,10.0,NW,13.8,-,N/A,,Overcast,320,2012-12-10 18:53:00
1:53 PM,28.9,19.0,67,29.98,10.0,NW,12.7,23.0,N/A,,Overcast,320,2012-12-10 19:53:00
2:53 PM,30.0,19.0,64,30.00,10.0,NNW,9.2,-,N/A,,Overcast,340,2012-12-10 20:53:00
3:24 PM,30.2,19.4,64,29.97,10.0,NW,12.7,17.3,N/A,,Scattered Clouds,320,2012-12-10 21:24:00
3:53 PM,30.9,19.0,61,30.01,10.0,NW,8.1,-,N/A,,Clear,320,2012-12-10 21:53:00
4:53 PM,28.0,19.0,69,30.03,10.0,NW,4.6,-,N/A,,Clear,310,2012-12-10 22:53:00
5:53 PM,26.1,18.0,71,30.04,10.0,NNW,3.5,-,N/A,,Clear,330,2012-12-10 23:53:00
6:53 PM,24.1,17.1,75,30.06,10.0,NW,4.6,-,N/A,,Clear,310,2012-12-11 00:53:00
7:53 PM,21.9,17.1,82,30.08,10.0,West,3.5,-,N/A,,Clear,260,2012-12-11 01:53:00
8:53 PM,21.9,17.1,82,30.09,10.0,Calm,Calm,-,N/A,,Clear,0,2012-12-11 02:53:00
9:53 PM,19.0,15.1,85,30.09,10.0,NW,3.5,-,N/A,,Clear,320,2012-12-11 03:53:00
10:53 PM,19.9,15.1,81,30.11,10.0,WNW,4.6,-,N/A,,Clear,290,2012-12-11 04:53:00
11:53 PM,19.9,16.0,85,30.12,10.0,Calm,Calm,-,N/A,,Clear,0,2012-12-11 05:53:00